Wetterdaten: Dienstag, 18.11.2014
Datum Zeit Temp. Auen Feucht Auen Luftdruck Regen Richtung Richtung Windben
18.11.2014 00:00 6,7 C 95 % 1004,3 hPa 0,0 mm O 92 12,9 km/h (3 Bft)
18.11.2014 00:05 6,7 C 95 % 1004,0 hPa 0,0 mm O 88 12,9 km/h (3 Bft)
18.11.2014 00:10 6,6 C 95 % 1004,0 hPa 0,0 mm O 101 14,5 km/h (3 Bft)
18.11.2014 00:15 6,7 C 95 % 1004,0 hPa 0,0 mm O-NO 70 12,9 km/h (3 Bft)
18.11.2014 00:20 6,6 C 95 % 1003,9 hPa 0,0 mm O 96 11,3 km/h (2 Bft)
18.11.2014 00:25 6,4 C 95 % 1003,8 hPa 0,0 mm O 97 8,0 km/h (2 Bft)
18.11.2014 00:30 6,5 C 95 % 1003,7 hPa 0,0 mm O 80 14,5 km/h (3 Bft)
18.11.2014 00:35 6,6 C 95 % 1003,6 hPa 0,0 mm O-NO 78 14,5 km/h (3 Bft)
18.11.2014 00:40 6,5 C 95 % 1003,6 hPa 0,0 mm O 79 12,9 km/h (3 Bft)
18.11.2014 00:45 6,4 C 95 % 1003,5 hPa 0,0 mm O-NO 59 9,7 km/h (2 Bft)
18.11.2014 00:50 6,4 C 95 % 1003,3 hPa 0,0 mm O-NO 66 12,9 km/h (3 Bft)
18.11.2014 00:55 6,4 C 95 % 1003,3 hPa 0,0 mm O-NO 57 8,0 km/h (2 Bft)
18.11.2014 01:00 6,5 C 95 % 1003,3 hPa 0,0 mm O-NO 76 8,0 km/h (2 Bft)
18.11.2014 01:05 6,5 C 95 % 1003,3 hPa 0,0 mm NO 42 11,3 km/h (2 Bft)
18.11.2014 01:10 6,6 C 95 % 1003,1 hPa 0,0 mm NO 44 6,4 km/h (2 Bft)
18.11.2014 01:15 6,6 C 95 % 1003,2 hPa 0,0 mm O-NO 65 6,4 km/h (2 Bft)
18.11.2014 01:20 6,6 C 95 % 1003,2 hPa 0,0 mm O-NO 69 9,7 km/h (2 Bft)
18.11.2014 01:25 6,6 C 95 % 1003,0 hPa 0,0 mm O 100 12,9 km/h (3 Bft)
18.11.2014 01:30 6,6 C 95 % 1003,1 hPa 0,0 mm O-NO 65 12,9 km/h (3 Bft)
18.11.2014 01:35 6,7 C 95 % 1003,1 hPa 0,0 mm O-SO 102 9,7 km/h (2 Bft)
18.11.2014 01:40 6,7 C 95 % 1003,1 hPa 0,0 mm O-NO 74 12,9 km/h (3 Bft)
18.11.2014 01:45 6,8 C 95 % 1003,3 hPa 0,0 mm NO 41 8,0 km/h (2 Bft)
18.11.2014 01:50 6,8 C 95 % 1003,1 hPa 0,0 mm O-NO 61 9,7 km/h (2 Bft)
18.11.2014 01:55 6,7 C 95 % 1003,3 hPa 0,0 mm O-NO 61 1,6 km/h (1 Bft)
18.11.2014 02:00 6,7 C 95 % 1003,4 hPa 0,0 mm O-NO 61 1,6 km/h (1 Bft)
18.11.2014 02:05 6,8 C 95 % 1003,5 hPa 0,0 mm NW 325 3,2 km/h (1 Bft)
18.11.2014 02:10 6,8 C 95 % 1003,7 hPa 0,0 mm W 271 4,8 km/h (1 Bft)
18.11.2014 02:15 6,8 C 95 % 1003,8 hPa 0,0 mm W 269 4,8 km/h (1 Bft)
18.11.2014 02:20 6,8 C 95 % 1003,9 hPa 0,0 mm W 271 4,8 km/h (1 Bft)
18.11.2014 02:25 6,7 C 95 % 1003,9 hPa 0,0 mm W 260 6,4 km/h (2 Bft)
18.11.2014 02:30 6,6 C 95 % 1003,9 hPa 0,2 mm W 259 11,3 km/h (2 Bft)
18.11.2014 02:35 6,4 C 95 % 1003,9 hPa 0,4 mm W 265 12,9 km/h (3 Bft)
18.11.2014 02:40 6,2 C 95 % 1003,9 hPa 0,2 mm W 263 9,7 km/h (2 Bft)
18.11.2014 02:45 6,1 C 95 % 1003,8 hPa 0,4 mm W 263 12,9 km/h (3 Bft)
18.11.2014 02:50 6,1 C 95 % 1003,8 hPa 0,2 mm W 279 9,7 km/h (2 Bft)
18.11.2014 02:55 6,0 C 95 % 1003,8 hPa 0,0 mm W 265 6,4 km/h (2 Bft)
18.11.2014 03:00 6,0 C 95 % 1003,8 hPa 0,2 mm W 265 4,8 km/h (1 Bft)
18.11.2014 03:05 5,9 C 95 % 1003,8 hPa 0,4 mm W-NW 297 8,0 km/h (2 Bft)
18.11.2014 03:10 5,9 C 95 % 1003,7 hPa 0,0 mm W 269 8,0 km/h (2 Bft)
18.11.2014 03:15 5,9 C 95 % 1003,8 hPa 0,2 mm W 267 8,0 km/h (2 Bft)
18.11.2014 03:20 5,9 C 95 % 1003,7 hPa 0,0 mm W 271 6,4 km/h (2 Bft)
18.11.2014 03:25 5,9 C 95 % 1003,7 hPa 0,2 mm W 266 4,8 km/h (1 Bft)
18.11.2014 03:30 5,9 C 95 % 1003,6 hPa 0,2 mm W 270 6,4 km/h (2 Bft)
18.11.2014 03:35 5,8 C 96 % 1003,5 hPa 0,0 mm W 269 6,4 km/h (2 Bft)
18.11.2014 03:40 5,8 C 96 % 1003,3 hPa 0,2 mm W 269 4,8 km/h (1 Bft)
18.11.2014 03:45 5,8 C 96 % 1003,2 hPa 0,0 mm W 263 4,8 km/h (1 Bft)
18.11.2014 03:50 5,8 C 96 % 1003,0 hPa 0,0 mm W 263 4,8 km/h (1 Bft)
18.11.2014 03:55 5,8 C 96 % 1003,1 hPa 0,2 mm W 259 4,8 km/h (1 Bft)
18.11.2014 04:00 5,8 C 96 % 1003,1 hPa 0,0 mm W 259 6,4 km/h (2 Bft)
18.11.2014 04:05 5,8 C 96 % 1003,3 hPa 0,0 mm W 277 4,8 km/h (1 Bft)
18.11.2014 04:10 5,9 C 96 % 1003,3 hPa 0,0 mm W 265 6,4 km/h (2 Bft)
18.11.2014 04:15 5,9 C 96 % 1003,3 hPa 0,0 mm W 265 8,0 km/h (2 Bft)
18.11.2014 04:20 5,9 C 96 % 1003,1 hPa 0,0 mm W 261 6,4 km/h (2 Bft)
18.11.2014 04:25 5,9 C 96 % 1003,2 hPa 0,0 mm W-NW 303 6,4 km/h (2 Bft)
18.11.2014 04:30 5,9 C 96 % 1003,1 hPa 0,0 mm W 278 6,4 km/h (2 Bft)
18.11.2014 04:35 5,9 C 96 % 1003,3 hPa 0,0 mm W 280 6,4 km/h (2 Bft)
18.11.2014 04:40 5,9 C 96 % 1003,3 hPa 0,2 mm W 263 6,4 km/h (2 Bft)
18.11.2014 04:45 5,9 C 96 % 1003,3 hPa 0,0 mm W 259 4,8 km/h (1 Bft)
18.11.2014 04:50 5,9 C 96 % 1003,2 hPa 0,0 mm W 261 4,8 km/h (1 Bft)
18.11.2014 04:55 5,9 C 96 % 1003,2 hPa 0,0 mm W 280 6,4 km/h (2 Bft)
18.11.2014 05:00 5,9 C 96 % 1003,4 hPa 0,2 mm W 261 9,7 km/h (2 Bft)
18.11.2014 05:05 5,9 C 96 % 1003,3 hPa 0,0 mm W-NW 301 6,4 km/h (2 Bft)
18.11.2014 05:10 5,9 C 96 % 1003,1 hPa 0,0 mm W 269 4,8 km/h (1 Bft)
18.11.2014 05:15 5,9 C 96 % 1003,4 hPa 0,2 mm W 281 8,0 km/h (2 Bft)
18.11.2014 05:20 5,8 C 96 % 1003,3 hPa 0,0 mm W 276 8,0 km/h (2 Bft)
18.11.2014 05:25 5,8 C 96 % 1003,3 hPa 0,0 mm W 268 8,0 km/h (2 Bft)
18.11.2014 05:30 5,8 C 96 % 1003,4 hPa 0,2 mm W-SW 254 11,3 km/h (2 Bft)
18.11.2014 05:35 5,7 C 96 % 1003,3 hPa 0,0 mm W 267 8,0 km/h (2 Bft)
18.11.2014 05:40 5,7 C 96 % 1003,3 hPa 0,2 mm W 269 6,4 km/h (2 Bft)
18.11.2014 05:45 5,7 C 96 % 1003,3 hPa 0,0 mm W 266 6,4 km/h (2 Bft)
18.11.2014 05:50 5,7 C 96 % 1003,3 hPa 0,2 mm W 271 6,4 km/h (2 Bft)
18.11.2014 05:55 5,7 C 96 % 1003,3 hPa 0,2 mm W 269 6,4 km/h (2 Bft)
18.11.2014 06:00 5,7 C 96 % 1003,4 hPa 0,2 mm W 261 6,4 km/h (2 Bft)
18.11.2014 06:05 5,7 C 96 % 1003,3 hPa 0,2 mm W 276 6,4 km/h (2 Bft)
18.11.2014 06:10 5,6 C 96 % 1003,4 hPa 0,0 mm W 277 6,4 km/h (2 Bft)
18.11.2014 06:15 5,6 C 96 % 1003,4 hPa 0,2 mm W 280 8,0 km/h (2 Bft)
18.11.2014 06:20 5,6 C 96 % 1003,4 hPa 0,0 mm W 273 6,4 km/h (2 Bft)
18.11.2014 06:25 5,5 C 96 % 1003,5 hPa 0,0 mm W 267 4,8 km/h (1 Bft)
18.11.2014 06:30 5,5 C 95 % 1003,6 hPa 0,2 mm W 279 8,0 km/h (2 Bft)
18.11.2014 06:35 5,4 C 95 % 1003,5 hPa 0,0 mm W 267 6,4 km/h (2 Bft)
18.11.2014 06:40 5,4 C 96 % 1003,5 hPa 0,0 mm W 275 8,0 km/h (2 Bft)
18.11.2014 06:45 5,4 C 95 % 1003,5 hPa 0,2 mm W 264 9,7 km/h (2 Bft)
18.11.2014 06:50 5,3 C 95 % 1003,6 hPa 0,0 mm W 273 14,5 km/h (3 Bft)
18.11.2014 06:55 5,2 C 95 % 1003,6 hPa 0,2 mm W 269 16,1 km/h (3 Bft)
18.11.2014 07:00 5,2 C 95 % 1003,7 hPa 0,0 mm W 262 14,5 km/h (3 Bft)
18.11.2014 07:05 5,1 C 95 % 1003,8 hPa 0,2 mm W-SW 257 16,1 km/h (3 Bft)
18.11.2014 07:10 5,0 C 95 % 1003,9 hPa 0,0 mm W-SW 250 11,3 km/h (2 Bft)
18.11.2014 07:15 4,9 C 95 % 1004,0 hPa 0,0 mm W 273 14,5 km/h (3 Bft)
18.11.2014 07:20 4,8 C 95 % 1004,0 hPa 0,2 mm W 263 11,3 km/h (2 Bft)
18.11.2014 07:25 4,8 C 95 % 1004,1 hPa 0,0 mm W 279 11,3 km/h (2 Bft)
18.11.2014 07:30 4,7 C 95 % 1004,2 hPa 0,2 mm W 263 14,5 km/h (3 Bft)
18.11.2014 07:35 4,6 C 95 % 1004,3 hPa 0,0 mm W 272 12,9 km/h (3 Bft)
18.11.2014 07:40 4,6 C 95 % 1004,4 hPa 0,2 mm W-SW 253 14,5 km/h (3 Bft)
18.11.2014 07:45 4,5 C 95 % 1004,3 hPa 0,0 mm W 270 12,9 km/h (3 Bft)
18.11.2014 07:50 4,5 C 95 % 1004,4 hPa 0,0 mm W-SW 256 14,5 km/h (3 Bft)
18.11.2014 07:55 4,4 C 95 % 1004,5 hPa 0,2 mm W 260 11,3 km/h (2 Bft)
18.11.2014 08:00 4,4 C 95 % 1004,6 hPa 0,0 mm W 263 14,5 km/h (3 Bft)
18.11.2014 08:05 4,4 C 95 % 1004,7 hPa 0,0 mm W-SW 255 12,9 km/h (3 Bft)
18.11.2014 08:10 4,4 C 95 % 1004,8 hPa 0,2 mm W 274 8,0 km/h (2 Bft)
18.11.2014 08:15 4,4 C 95 % 1004,9 hPa 0,0 mm W 262 8,0 km/h (2 Bft)
18.11.2014 08:20 4,4 C 95 % 1004,9 hPa 0,2 mm W 262 8,0 km/h (2 Bft)
18.11.2014 08:25 4,4 C 95 % 1005,0 hPa 0,0 mm W 266 12,9 km/h (3 Bft)
18.11.2014 08:30 4,3 C 95 % 1005,0 hPa 0,2 mm W 271 8,0 km/h (2 Bft)
18.11.2014 08:35 4,3 C 95 % 1005,0 hPa 0,0 mm W-SW 258 9,7 km/h (2 Bft)
18.11.2014 08:40 4,3 C 95 % 1004,9 hPa 0,0 mm W 265 9,7 km/h (2 Bft)
18.11.2014 08:45 4,3 C 95 % 1005,0 hPa 0,2 mm W 265 11,3 km/h (2 Bft)
18.11.2014 08:50 4,3 C 95 % 1005,0 hPa 0,0 mm W-SW 256 11,3 km/h (2 Bft)
18.11.2014 08:55 4,3 C 95 % 1005,1 hPa 0,0 mm W 262 12,9 km/h (3 Bft)
18.11.2014 09:00 4,3 C 95 % 1005,1 hPa 0,0 mm W 269 14,5 km/h (3 Bft)
18.11.2014 09:05 4,3 C 95 % 1005,2 hPa 0,0 mm W 274 16,1 km/h (3 Bft)
18.11.2014 09:10 4,3 C 95 % 1005,2 hPa 0,0 mm W-NW 288 12,9 km/h (3 Bft)
18.11.2014 09:15 4,3 C 95 % 1005,2 hPa 0,2 mm W 277 12,9 km/h (3 Bft)
18.11.2014 09:20 4,3 C 95 % 1005,2 hPa 0,0 mm W 267 11,3 km/h (2 Bft)
18.11.2014 09:25 4,2 C 95 % 1005,3 hPa 0,0 mm W-SW 257 14,5 km/h (3 Bft)
18.11.2014 09:30 4,2 C 95 % 1005,3 hPa 0,0 mm W 265 9,7 km/h (2 Bft)
18.11.2014 09:35 4,3 C 95 % 1005,3 hPa 0,0 mm W 262 12,9 km/h (3 Bft)
18.11.2014 09:40 4,2 C 95 % 1005,3 hPa 0,0 mm W 270 14,5 km/h (3 Bft)
18.11.2014 09:45 4,2 C 95 % 1005,4 hPa 0,0 mm W 259 11,3 km/h (2 Bft)
18.11.2014 09:50 4,2 C 95 % 1005,5 hPa 0,2 mm W 274 11,3 km/h (2 Bft)
18.11.2014 09:55 4,2 C 95 % 1005,5 hPa 0,0 mm W 270 11,3 km/h (2 Bft)
18.11.2014 10:00 4,2 C 95 % 1005,6 hPa 0,0 mm W 259 8,0 km/h (2 Bft)
18.11.2014 10:05 4,2 C 95 % 1005,7 hPa 0,0 mm W 271 9,7 km/h (2 Bft)
18.11.2014 10:10 4,2 C 95 % 1005,8 hPa 0,0 mm W 279 9,7 km/h (2 Bft)
18.11.2014 10:15 4,2 C 95 % 1005,8 hPa 0,0 mm W-SW 246 8,0 km/h (2 Bft)
18.11.2014 10:20 4,2 C 95 % 1005,9 hPa 0,0 mm W 261 11,3 km/h (2 Bft)
18.11.2014 10:25 4,2 C 95 % 1006,0 hPa 0,0 mm W 275 11,3 km/h (2 Bft)
18.11.2014 10:30 4,3 C 95 % 1006,0 hPa 0,0 mm W 263 9,7 km/h (2 Bft)
18.11.2014 10:35 4,4 C 95 % 1006,0 hPa 0,0 mm W 269 4,8 km/h (1 Bft)
18.11.2014 10:40 4,3 C 95 % 1006,1 hPa 0,0 mm W-NW 283 11,3 km/h (2 Bft)
18.11.2014 10:45 4,4 C 95 % 1006,0 hPa 0,0 mm W 270 8,0 km/h (2 Bft)
18.11.2014 10:50 4,3 C 95 % 1006,1 hPa 0,0 mm W 263 11,3 km/h (2 Bft)
18.11.2014 10:55 4,4 C 95 % 1006,2 hPa 0,0 mm W-SW 258 9,7 km/h (2 Bft)
18.11.2014 11:00 4,4 C 95 % 1006,1 hPa 0,0 mm W 270 9,7 km/h (2 Bft)
18.11.2014 11:05 4,4 C 95 % 1006,1 hPa 0,2 mm W 274 6,4 km/h (2 Bft)
18.11.2014 11:10 4,5 C 95 % 1006,1 hPa 0,0 mm W 263 6,4 km/h (2 Bft)
18.11.2014 11:15 4,6 C 95 % 1006,2 hPa 0,0 mm W 263 6,4 km/h (2 Bft)
18.11.2014 11:20 4,6 C 95 % 1006,2 hPa 0,0 mm W 271 9,7 km/h (2 Bft)
18.11.2014 11:25 4,6 C 95 % 1006,2 hPa 0,0 mm W-SW 254 8,0 km/h (2 Bft)
18.11.2014 11:30 4,6 C 95 % 1006,2 hPa 0,0 mm W 259 8,0 km/h (2 Bft)
18.11.2014 11:35 4,6 C 95 % 1006,2 hPa 0,0 mm W-NW 288 11,3 km/h (2 Bft)
18.11.2014 11:40 4,6 C 95 % 1006,2 hPa 0,0 mm W 269 8,0 km/h (2 Bft)
18.11.2014 11:45 4,7 C 95 % 1006,2 hPa 0,2 mm W-NW 286 9,7 km/h (2 Bft)
18.11.2014 11:50 4,7 C 95 % 1006,1 hPa 0,0 mm W 259 11,3 km/h (2 Bft)
18.11.2014 11:55 4,8 C 95 % 1006,1 hPa 0,0 mm W-SW 249 11,3 km/h (2 Bft)
18.11.2014 12:00 4,8 C 95 % 1006,2 hPa 0,0 mm W 280 11,3 km/h (2 Bft)
18.11.2014 12:05 4,8 C 95 % 1006,2 hPa 0,0 mm W 262 9,7 km/h (2 Bft)
18.11.2014 12:10 4,9 C 95 % 1006,2 hPa 0,0 mm W 261 12,9 km/h (3 Bft)
18.11.2014 12:15 5,0 C 95 % 1006,2 hPa 0,0 mm W 266 9,7 km/h (2 Bft)
18.11.2014 12:20 5,0 C 95 % 1006,3 hPa 0,0 mm W-SW 243 12,9 km/h (3 Bft)
18.11.2014 12:25 5,1 C 95 % 1006,3 hPa 0,0 mm W 261 11,3 km/h (2 Bft)
18.11.2014 12:30 5,1 C 95 % 1006,4 hPa 0,2 mm W 273 9,7 km/h (2 Bft)
18.11.2014 12:35 5,2 C 95 % 1006,4 hPa 0,0 mm W-SW 257 9,7 km/h (2 Bft)
18.11.2014 12:40 5,2 C 95 % 1006,4 hPa 0,0 mm W 266 8,0 km/h (2 Bft)
18.11.2014 12:45 5,3 C 95 % 1006,4 hPa 0,0 mm W 259 6,4 km/h (2 Bft)
18.11.2014 12:50 5,3 C 95 % 1006,4 hPa 0,2 mm W-NW 292 11,3 km/h (2 Bft)
18.11.2014 12:55 5,3 C 95 % 1006,5 hPa 0,0 mm W 260 8,0 km/h (2 Bft)
18.11.2014 13:00 5,3 C 95 % 1006,6 hPa 0,0 mm W-SW 250 9,7 km/h (2 Bft)
18.11.2014 13:05 5,3 C 95 % 1006,6 hPa 0,2 mm W 269 8,0 km/h (2 Bft)
18.11.2014 13:10 5,3 C 95 % 1006,6 hPa 0,0 mm W 261 11,3 km/h (2 Bft)
18.11.2014 13:15 5,3 C 95 % 1006,7 hPa 0,0 mm W 261 9,7 km/h (2 Bft)
18.11.2014 13:20 5,3 C 95 % 1006,8 hPa 0,2 mm W 263 8,0 km/h (2 Bft)
18.11.2014 13:25 5,3 C 95 % 1006,8 hPa 0,0 mm W-SW 250 9,7 km/h (2 Bft)
18.11.2014 13:30 5,3 C 95 % 1006,9 hPa 0,0 mm W 271 8,0 km/h (2 Bft)
18.11.2014 13:35 5,3 C 95 % 1006,9 hPa 0,2 mm W 277 11,3 km/h (2 Bft)
18.11.2014 13:40 5,4 C 95 % 1006,9 hPa 0,0 mm W-NW 285 4,8 km/h (1 Bft)
18.11.2014 13:45 5,4 C 95 % 1007,0 hPa 0,0 mm W 267 8,0 km/h (2 Bft)
18.11.2014 13:50 5,5 C 95 % 1007,0 hPa 0,2 mm W 267 4,8 km/h (1 Bft)
18.11.2014 13:55 5,5 C 95 % 1007,0 hPa 0,0 mm W 273 8,0 km/h (2 Bft)
18.11.2014 14:00 5,6 C 95 % 1007,1 hPa 0,2 mm W 272 6,4 km/h (2 Bft)
18.11.2014 14:05 5,5 C 95 % 1007,1 hPa 0,0 mm W-NW 296 9,7 km/h (2 Bft)
18.11.2014 14:10 5,5 C 95 % 1007,2 hPa 0,0 mm W 261 8,0 km/h (2 Bft)
18.11.2014 14:15 5,6 C 95 % 1007,3 hPa 0,2 mm W 262 4,8 km/h (1 Bft)
18.11.2014 14:20 5,5 C 95 % 1007,3 hPa 0,0 mm W 264 8,0 km/h (2 Bft)
18.11.2014 14:25 5,5 C 95 % 1007,4 hPa 0,2 mm W-NW 288 6,4 km/h (2 Bft)
18.11.2014 14:30 5,4 C 95 % 1007,4 hPa 0,0 mm W 265 6,4 km/h (2 Bft)
18.11.2014 14:35 5,4 C 95 % 1007,5 hPa 0,2 mm W-SW 241 6,4 km/h (2 Bft)
18.11.2014 14:40 5,4 C 95 % 1007,4 hPa 0,0 mm W 279 6,4 km/h (2 Bft)
18.11.2014 14:45 5,4 C 95 % 1007,5 hPa 0,2 mm W 271 3,2 km/h (1 Bft)
18.11.2014 14:50 5,4 C 95 % 1007,6 hPa 0,0 mm W 269 3,2 km/h (1 Bft)
18.11.2014 14:55 5,4 C 95 % 1007,7 hPa 0,0 mm W 268 3,2 km/h (1 Bft)
18.11.2014 15:00 5,4 C 95 % 1007,7 hPa 0,2 mm W 268 3,2 km/h (1 Bft)
18.11.2014 15:05 5,4 C 95 % 1007,8 hPa 0,2 mm W 266 3,2 km/h (1 Bft)
18.11.2014 15:10 5,4 C 95 % 1007,8 hPa 0,0 mm W 266 3,2 km/h (1 Bft)
18.11.2014 15:15 5,5 C 95 % 1008,0 hPa 0,2 mm W 266 1,6 km/h (1 Bft)
18.11.2014 15:20 5,4 C 95 % 1007,9 hPa 0,0 mm W 264 3,2 km/h (1 Bft)
18.11.2014 15:25 5,5 C 96 % 1008,0 hPa 0,2 mm W 264 3,2 km/h (1 Bft)
18.11.2014 15:30 5,4 C 96 % 1008,0 hPa 0,0 mm W 264 3,2 km/h (1 Bft)
18.11.2014 15:35 5,4 C 96 % 1008,1 hPa 0,2 mm W 264 3,2 km/h (1 Bft)
18.11.2014 15:40 5,4 C 95 % 1008,1 hPa 0,2 mm W 264 3,2 km/h (1 Bft)
18.11.2014 15:45 5,4 C 95 % 1008,2 hPa 0,0 mm W 264 1,6 km/h (1 Bft)
18.11.2014 15:50 5,4 C 95 % 1008,2 hPa 0,0 mm W 264 3,2 km/h (1 Bft)
18.11.2014 15:55 5,4 C 95 % 1008,2 hPa 0,2 mm W 264 3,2 km/h (1 Bft)
18.11.2014 16:00 5,4 C 95 % 1008,2 hPa 0,0 mm W 264 1,6 km/h (1 Bft)
18.11.2014 16:05 5,4 C 96 % 1008,3 hPa 0,2 mm W 264 1,6 km/h (1 Bft)
18.11.2014 16:10 5,3 C 96 % 1008,3 hPa 0,0 mm W 264 3,2 km/h (1 Bft)
18.11.2014 16:15 5,3 C 96 % 1008,4 hPa 0,0 mm W 264 3,2 km/h (1 Bft)
18.11.2014 16:20 5,3 C 96 % 1008,4 hPa 0,2 mm W 264 1,6 km/h (1 Bft)
18.11.2014 16:25 5,3 C 96 % 1008,5 hPa 0,0 mm W 264 1,6 km/h (1 Bft)
18.11.2014 16:30 5,3 C 96 % 1008,5 hPa 0,2 mm W 264 1,6 km/h (1 Bft)
18.11.2014 16:35 5,3 C 96 % 1008,6 hPa 0,0 mm W 264 1,6 km/h (1 Bft)
18.11.2014 16:40 5,3 C 96 % 1008,6 hPa 0,0 mm W 264 0,0 km/h (0 Bft)
18.11.2014 16:45 5,2 C 96 % 1008,7 hPa 0,2 mm W 264 1,6 km/h (1 Bft)
18.11.2014 16:50 5,3 C 96 % 1008,6 hPa 0,0 mm W 264 0,0 km/h (0 Bft)
18.11.2014 16:55 5,3 C 96 % 1008,7 hPa 0,0 mm W 264 0,0 km/h (0 Bft)
18.11.2014 17:00 5,3 C 96 % 1008,7 hPa 0,2 mm W 264 0,0 km/h (0 Bft)
18.11.2014 17:05 5,3 C 96 % 1008,7 hPa 0,0 mm W 264 0,0 km/h (0 Bft)
18.11.2014 17:10 5,3 C 96 % 1008,8 hPa 0,0 mm W 264 0,0 km/h (0 Bft)
18.11.2014 17:15 5,3 C 96 % 1008,8 hPa 0,2 mm W 264 0,0 km/h (0 Bft)
18.11.2014 17:20 5,3 C 96 % 1008,9 hPa 0,0 mm W 264 0,0 km/h (0 Bft)
18.11.2014 17:25 5,3 C 96 % 1008,9 hPa 0,2 mm W 264 0,0 km/h (0 Bft)
18.11.2014 17:30 5,3 C 96 % 1009,0 hPa 0,0 mm W 264 0,0 km/h (0 Bft)
18.11.2014 17:35 5,3 C 96 % 1009,1 hPa 0,0 mm W 264 0,0 km/h (0 Bft)
18.11.2014 17:40 5,3 C 96 % 1009,1 hPa 0,2 mm W 264 0,0 km/h (0 Bft)
18.11.2014 17:45 5,3 C 96 % 1009,1 hPa 0,0 mm W 264 0,0 km/h (0 Bft)
18.11.2014 17:50 5,3 C 96 % 1009,2 hPa 0,2 mm W 264 0,0 km/h (0 Bft)
18.11.2014 17:55 5,3 C 96 % 1009,3 hPa 0,0 mm W 264 0,0 km/h (0 Bft)
18.11.2014 18:00 5,3 C 96 % 1009,5 hPa 0,2 mm W 264 0,0 km/h (0 Bft)
18.11.2014 18:05 5,3 C 96 % 1009,5 hPa 0,0 mm W 264 0,0 km/h (0 Bft)
18.11.2014 18:10 5,3 C 96 % 1009,5 hPa 0,0 mm W 264 0,0 km/h (0 Bft)
18.11.2014 18:15 5,3 C 96 % 1009,6 hPa 0,2 mm W 264 0,0 km/h (0 Bft)
18.11.2014 18:20 5,3 C 96 % 1009,7 hPa 0,0 mm W 264 0,0 km/h (0 Bft)
18.11.2014 18:25 5,3 C 96 % 1009,7 hPa 0,0 mm W 264 0,0 km/h (0 Bft)
18.11.2014 18:30 5,3 C 96 % 1009,8 hPa 0,2 mm W 264 0,0 km/h (0 Bft)
18.11.2014 18:35 5,3 C 96 % 1009,8 hPa 0,0 mm W 264 0,0 km/h (0 Bft)
18.11.2014 18:40 5,3 C 96 % 1009,8 hPa 0,0 mm W 264 0,0 km/h (0 Bft)
18.11.2014 18:45 5,3 C 96 % 1009,8 hPa 0,0 mm W 264 0,0 km/h (0 Bft)
18.11.2014 18:50 5,3 C 96 % 1009,8 hPa 0,2 mm W 264 0,0 km/h (0 Bft)
18.11.2014 18:55 5,3 C 96 % 1009,9 hPa 0,0 mm W 264 0,0 km/h (0 Bft)
18.11.2014 19:00 5,3 C 96 % 1010,0 hPa 0,0 mm W 264 0,0 km/h (0 Bft)
18.11.2014 19:05 5,4 C 96 % 1010,0 hPa 0,0 mm W 264 0,0 km/h (0 Bft)
18.11.2014 19:10 5,3 C 96 % 1010,1 hPa 0,0 mm W 264 0,0 km/h (0 Bft)
18.11.2014 19:15 5,3 C 96 % 1010,1 hPa 0,0 mm W 264 0,0 km/h (0 Bft)
18.11.2014 19:20 5,2 C 96 % 1010,1 hPa 0,2 mm W 264 0,0 km/h (0 Bft)
18.11.2014 19:25 5,2 C 96 % 1010,2 hPa 0,0 mm W 264 0,0 km/h (0 Bft)
18.11.2014 19:30 5,2 C 96 % 1010,2 hPa 0,0 mm W 264 0,0 km/h (0 Bft)
18.11.2014 19:35 5,1 C 96 % 1010,3 hPa 0,0 mm W 264 0,0 km/h (0 Bft)
18.11.2014 19:40 5,1 C 96 % 1010,3 hPa 0,0 mm W 264 0,0 km/h (0 Bft)
18.11.2014 19:45 5,1 C 96 % 1010,4 hPa 0,0 mm W 264 0,0 km/h (0 Bft)
18.11.2014 19:50 5,2 C 96 % 1010,4 hPa 0,2 mm W 264 0,0 km/h (0 Bft)
18.11.2014 19:55 5,2 C 96 % 1010,5 hPa 0,0 mm W 264 0,0 km/h (0 Bft)
18.11.2014 20:00 5,1 C 96 % 1010,5 hPa 0,0 mm W 264 0,0 km/h (0 Bft)
18.11.2014 20:05 5,1 C 96 % 1010,5 hPa 0,0 mm W 264 0,0 km/h (0 Bft)
18.11.2014 20:10 5,1 C 96 % 1010,5 hPa 0,0 mm W 264 0,0 km/h (0 Bft)
18.11.2014 20:15 5,1 C 96 % 1010,5 hPa 0,0 mm W 264 0,0 km/h (0 Bft)
18.11.2014 20:20 5,1 C 96 % 1010,5 hPa 0,0 mm W 264 0,0 km/h (0 Bft)
18.11.2014 20:25 5,1 C 96 % 1010,5 hPa 0,0 mm W 264 0,0 km/h (0 Bft)
18.11.2014 20:30 5,1 C 96 % 1010,6 hPa 0,0 mm W 264 0,0 km/h (0 Bft)
18.11.2014 20:35 5,0 C 96 % 1010,6 hPa 0,0 mm W 264 0,0 km/h (0 Bft)
18.11.2014 20:40 5,1 C 96 % 1010,6 hPa 0,0 mm W 264 0,0 km/h (0 Bft)
18.11.2014 20:45 4,9 C 96 % 1010,6 hPa 0,0 mm W 264 0,0 km/h (0 Bft)
18.11.2014 20:50 4,8 C 96 % 1010,6 hPa 0,0 mm W 264 0,0 km/h (0 Bft)
18.11.2014 20:55 4,7 C 96 % 1010,6 hPa 0,0 mm W 264 0,0 km/h (0 Bft)
18.11.2014 21:00 4,7 C 96 % 1010,7 hPa 0,0 mm W 264 0,0 km/h (0 Bft)
18.11.2014 21:05 4,8 C 96 % 1010,8 hPa 0,0 mm W 264 0,0 km/h (0 Bft)
18.11.2014 21:10 4,8 C 96 % 1010,7 hPa 0,0 mm W 264 0,0 km/h (0 Bft)
18.11.2014 21:15 4,8 C 96 % 1010,9 hPa 0,0 mm W 264 0,0 km/h (0 Bft)
18.11.2014 21:20 4,8 C 96 % 1010,9 hPa 0,0 mm W 264 0,0 km/h (0 Bft)
18.11.2014 21:25 4,8 C 96 % 1011,0 hPa 0,0 mm W 264 0,0 km/h (0 Bft)
18.11.2014 21:30 4,9 C 96 % 1010,9 hPa 0,0 mm W 264 0,0 km/h (0 Bft)
18.11.2014 21:35 4,8 C 96 % 1010,9 hPa 0,0 mm W 264 0,0 km/h (0 Bft)
18.11.2014 21:40 4,8 C 96 % 1010,9 hPa 0,0 mm W 264 0,0 km/h (0 Bft)
18.11.2014 21:45 4,8 C 96 % 1010,9 hPa 0,0 mm W 264 0,0 km/h (0 Bft)
18.11.2014 21:50 4,8 C 96 % 1010,9 hPa 0,0 mm W 264 0,0 km/h (0 Bft)
18.11.2014 21:55 4,4 C 96 % 1011,0 hPa 0,0 mm W 264 0,0 km/h (0 Bft)
18.11.2014 22:00 4,5 C 96 % 1010,9 hPa 0,0 mm W 264 0,0 km/h (0 Bft)
18.11.2014 22:05 4,6 C 96 % 1010,9 hPa 0,0 mm W 264 0,0 km/h (0 Bft)
18.11.2014 22:10 4,7 C 96 % 1010,9 hPa 0,0 mm W 264 0,0 km/h (0 Bft)
18.11.2014 22:15 4,8 C 96 % 1011,0 hPa 0,0 mm W 264 0,0 km/h (0 Bft)
18.11.2014 22:20 4,8 C 96 % 1011,1 hPa 0,0 mm W 264 0,0 km/h (0 Bft)
18.11.2014 22:25 4,7 C 96 % 1011,1 hPa 0,0 mm W 264 0,0 km/h (0 Bft)
18.11.2014 22:30 4,8 C 96 % 1011,2 hPa 0,0 mm W 264 0,0 km/h (0 Bft)
18.11.2014 22:35 4,9 C 96 % 1011,2 hPa 0,0 mm W 264 0,0 km/h (0 Bft)
18.11.2014 22:40 4,9 C 96 % 1011,2 hPa 0,0 mm W 264 0,0 km/h (0 Bft)
18.11.2014 22:45 4,9 C 96 % 1011,3 hPa 0,0 mm W 264 0,0 km/h (0 Bft)
18.11.2014 22:50 4,9 C 96 % 1011,3 hPa 0,0 mm W 264 0,0 km/h (0 Bft)
18.11.2014 22:55 4,9 C 96 % 1011,3 hPa 0,0 mm W-NW 284 4,8 km/h (1 Bft)
18.11.2014 23:00 4,8 C 96 % 1011,4 hPa 0,0 mm W-NW 285 0,0 km/h (0 Bft)
18.11.2014 23:05 4,8 C 96 % 1011,3 hPa 0,0 mm W-NW 285 0,0 km/h (0 Bft)
18.11.2014 23:10 4,8 C 96 % 1011,3 hPa 0,0 mm W-NW 285 0,0 km/h (0 Bft)
18.11.2014 23:15 4,7 C 96 % 1011,4 hPa 0,0 mm W-NW 284 0,0 km/h (0 Bft)
18.11.2014 23:20 4,7 C 96 % 1011,5 hPa 0,0 mm W-NW 284 0,0 km/h (0 Bft)
18.11.2014 23:25 4,7 C 96 % 1011,4 hPa 0,0 mm W-NW 285 0,0 km/h (0 Bft)
18.11.2014 23:30 4,7 C 96 % 1011,4 hPa 0,0 mm W-NW 285 0,0 km/h (0 Bft)
18.11.2014 23:35 4,6 C 96 % 1011,4 hPa 0,0 mm W-NW 284 0,0 km/h (0 Bft)
18.11.2014 23:40 4,4 C 96 % 1011,5 hPa 0,0 mm W-NW 284 0,0 km/h (0 Bft)
18.11.2014 23:45 4,3 C 96 % 1011,5 hPa 0,0 mm W-NW 285 0,0 km/h (0 Bft)
18.11.2014 23:50 4,3 C 96 % 1011,5 hPa 0,0 mm W-NW 285 0,0 km/h (0 Bft)
18.11.2014 23:55 4,3 C 96 % 1011,6 hPa 0,0 mm W-NW 284 0,0 km/h (0 Bft)
_ Min-Zeit 09:25 00:00 01:25 - - - 16:40
Minimum _ 4,2 C 95 % 1003,0 hPa - - - 0,0 km/h (0 Bft)
_ Max-Zeit 01:40 03:35 23:55 02:35 - - 06:55
Maximum _ 6,8 C 96 % 1011,6 hPa 0,4 mm - - 16,1 km/h
W (3 Bft)
Durchschnitt _ 5,3 C 95 % 1006,7 hPa #14,8 mm W - 5,9 km/h (2 Bft)